Location: Plainartige
(45.6866°N, 1.7993°E)
Time: 16:31:05
(UTC+00:00)

Tiros 1 - Pass Details

Date: 02 June 2022
Orbit: 629 x 663 km, 48.4° (Epoch: 05 July)

Event Time Altitude Azimuth Distance (km) Brightness Sun altitude
Rises 23:08:38 0° 256° (WSW) 2,909 10.5 -21.4°
Reaches altitude 10° 23:10:57 10° 258° (WSW) 2,003 9.6 -21.4°
Maximum altitude 23:15:33 77° 345° (NNW) 649 7.2 -21.6°
Drops below altitude 10° 23:20:12 10° 72° (ENE) 2,016 9.8 -21.7°
Sets 23:22:32 0° 74° (ENE) 2,929 10.6 -21.7°
